This is the latest recevied weather packets stored in our database for station/object W1REE. If no packets are shown the sender has not sent any weather packets the latest 10 day(s).
| Time | Temp. | Humidity | Pressure | Rain* | Wind** | Luminosity | Snow |
|---|---|---|---|---|---|---|---|
| 1777987166 | 5.56° C | 81% | 1015.1 hPa | 0 mm | - | 21 W/m² | - |
| 1777986863 | 5.56° C | 80% | 1015 hPa | 0 mm | - | 18 W/m² | - |
| 1777986561 | 5.56° C | 80% | 1015.1 hPa | 0 mm | - | 19 W/m² | - |
| 1777986258 | 5.56° C | 81% | 1015.1 hPa | 0 mm | - | 21 W/m² | - |
| 1777985955 | 5.56° C | 80% | 1014.8 hPa | 0 mm | - | 22 W/m² | - |
| 1777985653 | 5.56° C | 80% | 1015 hPa | 0 mm | - | 21 W/m² | - |
| 1777985349 | 5.56° C | 80% | 1014.6 hPa | 0 mm | - | 26 W/m² | - |
| 1777985046 | 5.56° C | 79% | 1014.6 hPa | 0 mm | - | 20 W/m² | - |
| 1777984742 | 5.56° C | 78% | 1014.6 hPa | 0 mm | - | 14 W/m² | - |
| 1777984439 | 6.11° C | 78% | 1014.6 hPa | 0 mm | - | 11 W/m² | - |
| 1777984135 | 6.11° C | 77% | 1014.4 hPa | 0 mm | - | 9 W/m² | - |
| 1777983832 | 6.11° C | 77% | 1014.5 hPa | 0 mm | - | 9 W/m² | - |
| 1777983529 | 6.11° C | 76% | 1014.1 hPa | 0 mm | - | 6 W/m² | - |
| 1777983226 | 6.11° C | 76% | 1014 hPa | 0 mm | - | 6 W/m² | - |
| 1777982922 | 6.11° C | 75% | 1014 hPa | 0 mm | - | 6 W/m² | - |
| 1777982618 | 6.67° C | 75% | 1013.6 hPa | 0 mm | - | 3 W/m² | - |
| 1777982317 | 6.67° C | 74% | 1013.5 hPa | 0 mm | - | 3 W/m² | - |
| 1777982014 | 6.67° C | 72% | 1013.5 hPa | 0 mm | - | 2 W/m² | - |
| 1777981712 | 6.67° C | 73% | 1013.4 hPa | 0 mm | - | 1 W/m² | - |
| 1777981408 | 6.67° C | 71% | 1013.3 hPa | 0 mm | - | 0 W/m² | - |
| 1777981105 | 6.67° C | 71% | 1013.3 hPa | 0 mm | - | 0 W/m² | - |
| 1777980801 | 6.67° C | 72% | 1013.4 hPa | 0 mm | - | 0 W/m² | - |
| 1777980497 | 6.67° C | 71% | 1013 hPa | 0 mm | - | 0 W/m² | - |
| 1777980195 | 7.22° C | 72% | 1013 hPa | 0 mm | - | 0 W/m² | - |
| 1777979890 | 7.22° C | 73% | 1012.9 hPa | 0 mm | - | 0 W/m² | - |
* Rain latest hour (hover to see other rain measurements)
** Current wind speed in m/s (hover to see current wind gust speed)